Find Starlink 34414

NORAD ID: 64620 Int'l Des: 2025-137 Owner: SPXS Country: US Constellation: starlink operational
LEOCIRCULAR

Live Position

Loading 3D Globe...

About Starlink 34414

Description loading...

Upcoming Passes

Passes for default location (London). Set your location on the main map for personalized predictions.

Altitude History

Loading altitude history...

Two-Line Element Set

1 64620U 25137AC 26106.84434183 .00008541 00000-0 30016-3 0 9997
2 64620 53.1572 158.2077 0001123 89.8601 270.2529 15.30200413 46570
Epoch: Apr 16, 2026 • Age: 19 hours

Current Status

Altitude 475.3 km
Velocity 7.63 km/s
Sub-Earth Point 8.24°N, 88.2°E
Launch Date Jun 25, 2025
Age 0.8 years
Type internet

Technical Details

Classification Payload
Mass 575.00 kg
Dry Mass 530.00 kg
Total Mass 575.00 kg
Length 0.30 m
Diameter 4.10 m
Span 29.00 m
Shape Box + pan
Manufacturer SPXS
Bus Type Starlink V2MO
Phase Status In Orbit
Owner/State SPXS/US

Most Searched